TimeCST,TemperatureF,Dew PointF,Humidity,Sea Level PressureIn,VisibilityMPH,Wind Direction,Wind SpeedMPH,Gust SpeedMPH,PrecipitationIn,Events,Conditions,WindDirDegrees,DateUTC
12:13 AM,19.4,17.6,93,30.16,4.0,North,27.6,36.8,N/A,Snow,Light Snow,350,2012-11-23 06:13:00
12:32 AM,19.4,15.8,86,30.16,10.0,North,23.0,38.0,N/A,Snow,Light Snow,350,2012-11-23 06:32:00
12:53 AM,19.4,15.8,86,30.18,10.0,North,29.9,39.1,N/A,Snow,Light Snow,350,2012-11-23 06:53:00
1:13 AM,19.4,15.8,86,30.19,2.5,North,32.2,41.4,N/A,Snow,Light Snow,350,2012-11-23 07:13:00
1:53 AM,17.6,14.0,86,30.21,7.0,North,25.3,38.0,N/A,Snow,Light Snow,350,2012-11-23 07:53:00
2:12 AM,17.6,14.0,86,30.22,3.0,North,26.5,33.4,N/A,Snow,Light Snow,350,2012-11-23 08:12:00
2:32 AM,15.8,10.4,79,30.23,4.0,North,31.1,42.6,N/A,Snow,Light Snow,350,2012-11-23 08:32:00
2:53 AM,15.8,12.2,86,30.25,4.0,North,23.0,29.9,N/A,Snow,Light Snow,360,2012-11-23 08:53:00
3:12 AM,15.8,10.4,79,30.25,10.0,North,24.2,32.2,N/A,Snow,Light Snow,350,2012-11-23 09:12:00
3:33 AM,15.8,12.2,86,30.26,7.0,North,28.8,36.8,N/A,Snow,Light Snow,350,2012-11-23 09:33:00
3:53 AM,15.8,10.4,79,30.26,10.0,North,29.9,35.7,N/A,Snow,Light Snow,360,2012-11-23 09:53:00
4:12 AM,15.8,10.4,79,30.27,7.0,North,29.9,38.0,N/A,Snow,Light Snow,350,2012-11-23 10:12:00
4:33 AM,15.8,10.4,79,30.28,10.0,North,28.8,38.0,N/A,Snow,Light Snow,350,2012-11-23 10:33:00
4:53 AM,15.8,10.4,79,30.29,10.0,North,28.8,35.7,N/A,Snow,Light Snow,350,2012-11-23 10:53:00
5:12 AM,15.8,10.4,79,30.30,7.0,North,28.8,36.8,N/A,Snow,Light Snow,350,2012-11-23 11:12:00
5:33 AM,15.8,12.2,86,30.31,7.0,North,21.9,31.1,N/A,Snow,Light Snow,350,2012-11-23 11:33:00
5:53 AM,15.8,10.4,79,30.31,10.0,North,24.2,35.7,N/A,Snow,Light Snow,350,2012-11-23 11:53:00
6:12 AM,15.8,10.4,79,30.32,10.0,North,25.3,35.7,N/A,Snow,Light Snow,360,2012-11-23 12:12:00
6:33 AM,15.8,10.4,79,30.33,10.0,North,25.3,33.4,N/A,Snow,Light Snow,360,2012-11-23 12:33:00
7:12 AM,15.8,10.4,79,30.34,10.0,North,18.4,29.9,N/A,Snow,Light Snow,360,2012-11-23 13:12:00
7:33 AM,15.8,10.4,79,30.36,10.0,North,26.5,34.5,N/A,Snow,Light Snow,360,2012-11-23 13:33:00
7:53 AM,15.8,10.4,79,30.36,10.0,North,19.6,32.2,N/A,Snow,Light Snow,350,2012-11-23 13:53:00
8:12 AM,15.8,12.2,86,30.37,10.0,North,21.9,28.8,N/A,Snow,Light Snow,360,2012-11-23 14:12:00
8:33 AM,15.8,12.2,86,30.38,10.0,North,19.6,29.9,N/A,Snow,Light Snow,360,2012-11-23 14:33:00
8:53 AM,15.8,12.2,86,30.38,10.0,North,24.2,34.5,N/A,Snow,Light Snow,350,2012-11-23 14:53:00
9:12 AM,17.6,12.2,79,30.40,10.0,North,19.6,26.5,N/A,Snow,Light Snow,360,2012-11-23 15:12:00
9:33 AM,17.6,12.2,79,30.40,10.0,North,24.2,29.9,N/A,Snow,Light Snow,350,2012-11-23 15:33:00
9:52 AM,17.6,12.2,79,30.41,10.0,North,17.3,29.9,N/A,Snow,Light Snow,350,2012-11-23 15:52:00
10:12 AM,17.6,12.2,79,30.42,10.0,North,19.6,28.8,N/A,Snow,Light Snow,350,2012-11-23 16:12:00
10:33 AM,17.6,12.2,79,30.42,10.0,North,18.4,31.1,N/A,Snow,Light Snow,350,2012-11-23 16:33:00
10:52 AM,19.4,14.0,80,30.43,10.0,North,19.6,26.5,N/A,Snow,Light Snow,350,2012-11-23 16:52:00
11:13 AM,19.4,14.0,80,30.43,10.0,North,21.9,28.8,N/A,Snow,Light Snow,350,2012-11-23 17:13:00
11:33 AM,19.4,14.0,80,30.42,10.0,North,23.0,27.6,N/A,Snow,Light Snow,350,2012-11-23 17:33:00
11:52 AM,19.4,14.0,80,30.42,10.0,North,20.7,26.5,N/A,Snow,Light Snow,350,2012-11-23 17:52:00
12:13 PM,19.4,14.0,80,30.41,10.0,North,20.7,27.6,N/A,,Overcast,350,2012-11-23 18:13:00
12:33 PM,19.4,15.8,86,30.41,10.0,North,24.2,27.6,N/A,Snow,Light Snow,350,2012-11-23 18:33:00
12:52 PM,21.2,15.8,80,30.42,10.0,North,19.6,25.3,N/A,Snow,Light Snow,360,2012-11-23 18:52:00
1:13 PM,19.4,15.8,86,30.42,10.0,North,17.3,27.6,N/A,Snow,Light Snow,360,2012-11-23 19:13:00
1:32 PM,19.4,14.0,80,30.42,10.0,North,19.6,24.2,N/A,Snow,Light Snow,360,2012-11-23 19:32:00
1:52 PM,19.4,14.0,80,30.41,10.0,North,20.7,26.5,N/A,Snow,Light Snow,360,2012-11-23 19:52:00
2:13 PM,19.4,14.0,80,30.41,10.0,North,16.1,-,N/A,Snow,Light Snow,350,2012-11-23 20:13:00
2:32 PM,19.4,14.0,80,30.41,10.0,North,17.3,-,N/A,Snow,Light Snow,350,2012-11-23 20:32:00
2:53 PM,19.4,14.0,80,30.42,10.0,North,19.6,-,N/A,Snow,Light Snow,360,2012-11-23 20:53:00
3:12 PM,17.6,12.2,79,30.42,10.0,North,19.6,24.2,N/A,Snow,Light Snow,350,2012-11-23 21:12:00
3:32 PM,17.6,12.2,79,30.42,10.0,North,19.6,24.2,N/A,Snow,Light Snow,360,2012-11-23 21:32:00
3:53 PM,17.6,12.2,79,30.43,10.0,North,15.0,21.9,N/A,Snow,Light Snow,360,2012-11-23 21:53:00
4:12 PM,17.6,12.2,79,30.43,10.0,North,17.3,21.9,N/A,Snow,Light Snow,360,2012-11-23 22:12:00
4:32 PM,17.6,12.2,79,30.42,10.0,North,11.5,19.6,N/A,Snow,Light Snow,360,2012-11-23 22:32:00
4:53 PM,17.6,12.2,79,30.42,10.0,North,11.5,17.3,N/A,Snow,Light Snow,360,2012-11-23 22:53:00
5:12 PM,15.8,12.2,86,30.42,10.0,North,12.7,18.4,N/A,Snow,Light Snow,360,2012-11-23 23:12:00
5:33 PM,17.6,12.2,79,30.42,10.0,North,9.2,-,N/A,Snow,Light Snow,360,2012-11-23 23:33:00
5:53 PM,17.6,12.2,79,30.41,10.0,North,10.4,16.1,N/A,Snow,Light Snow,10,2012-11-23 23:53:00
6:33 PM,15.8,10.4,79,30.42,10.0,NNW,13.8,-,N/A,Snow,Light Snow,340,2012-11-24 00:33:00
6:53 PM,15.8,10.4,79,30.42,10.0,North,13.8,-,N/A,Snow,Light Snow,360,2012-11-24 00:53:00
7:12 PM,15.8,10.4,79,30.42,10.0,North,11.5,-,N/A,Snow,Light Snow,350,2012-11-24 01:12:00
7:33 PM,15.8,10.4,79,30.41,10.0,North,11.5,-,N/A,Snow,Light Snow,360,2012-11-24 01:33:00
7:53 PM,14.0,10.4,86,30.41,10.0,North,6.9,-,N/A,Snow,Light Snow,360,2012-11-24 01:53:00
8:12 PM,12.2,8.6,85,30.40,10.0,North,8.1,-,N/A,,Mostly Cloudy,10,2012-11-24 02:12:00
8:33 PM,10.4,6.8,85,30.40,10.0,North,5.8,-,N/A,,Mostly Cloudy,10,2012-11-24 02:33:00
8:53 PM,8.6,6.8,92,30.39,10.0,North,5.8,-,N/A,,Scattered Clouds,350,2012-11-24 02:53:00
9:12 PM,8.6,6.8,92,30.38,10.0,Calm,Calm,-,N/A,,Scattered Clouds,0,2012-11-24 03:12:00
9:33 PM,8.6,6.8,92,30.38,10.0,Calm,Calm,-,N/A,Snow,Light Snow,0,2012-11-24 03:33:00
9:52 PM,8.6,5.0,85,30.37,10.0,NNW,5.8,-,N/A,Snow,Light Snow,340,2012-11-24 03:52:00
10:12 PM,8.6,5.0,85,30.38,10.0,NW,5.8,-,N/A,,Scattered Clouds,320,2012-11-24 04:12:00
10:52 PM,6.8,3.2,85,30.37,10.0,NNW,3.5,-,N/A,,Clear,340,2012-11-24 04:52:00
11:13 PM,6.8,3.2,85,30.37,10.0,NNW,4.6,-,N/A,,Clear,340,2012-11-24 05:13:00
11:33 PM,6.8,5.0,92,30.36,10.0,NNW,3.5,-,N/A,,Clear,340,2012-11-24 05:33:00
11:52 PM,6.8,5.0,92,30.36,10.0,Calm,Calm,-,N/A,,Clear,0,2012-11-24 05:52:00